• In Belarus
  • List of Countries
  • For 7 days
  • Water Temperature
  • Satellite Maps
  • Weather Map
  • Weather Widgets
  • user-avatar
    Login

    Hourly Weather Shaki

    Today, 16 December, Sunday

    Time Temperature Precipitation Wind Pressure Humidity
    00:00 +6°C° 0 mm 1 mps 741 mmHg 59%
    01:00 +5°C° 0 mm 2 mps 741 mmHg 59%
    02:00 +5°C° 0 mm 2 mps 741 mmHg 59%
    03:00 +5°C° 0 mm 2 mps 741 mmHg 60%
    04:00 +5°C° 0 mm 2 mps 741 mmHg 59%
    05:00 +5°C° 0 mm 2 mps 740 mmHg 59%
    06:00 +5°C° 0 mm 2 mps 740 mmHg 58%
    07:00 +6°C° 0 mm 2 mps 741 mmHg 56%
    08:00 +7°C° 0 mm 2 mps 741 mmHg 54%
    09:00 +8°C° 0 mm 2 mps 741 mmHg 52%
    10:00 +9°C° 0 mm 2 mps 741 mmHg 50%
    11:00 +10°C° 0 mm 2 mps 741 mmHg 47%
    12:00 +11°C° 0 mm 3 mps 741 mmHg 45%
    13:00 +12°C° 0 mm 2 mps 741 mmHg 46%
    14:00 +12°C° 0 mm 2 mps 741 mmHg 47%
    15:00 +12°C° 0 mm 1 mps 741 mmHg 47%
    16:00 +10°C° 0 mm 2 mps 741 mmHg 51%
    17:00 +9°C° 0 mm 2 mps 742 mmHg 54%
    18:00 +7°C° 0 mm 2 mps 742 mmHg 58%
    19:00 +7°C° 0 mm 2 mps 742 mmHg 59%
    20:00 +7°C° 0 mm 2 mps 742 mmHg 59%
    21:00 +5°C° 0 mm 3 mps 742 mmHg 60%
    22:00 +5°C° 0 mm 3 mps 742 mmHg 64%
    23:00 +6°C° 0 mm 2 mps 742 mmHg 67%

    Tomorrow, 17 December, Monday

    Time Temperature Precipitation Wind Pressure Humidity
    00:00 +5°C° 0 mm 2 mps 742 mmHg 71%
    01:00 +5°C° 0 mm 2 mps 743 mmHg 73%
    02:00 +5°C° 0 mm 2 mps 743 mmHg 75%
    03:00 +5°C° 0 mm 2 mps 743 mmHg 77%
    04:00 +5°C° 0 mm 2 mps 743 mmHg 78%
    05:00 +5°C° 0 mm 2 mps 742 mmHg 78%
    06:00 +6°C° 0 mm 1 mps 742 mmHg 78%
    07:00 +6°C° 0 mm 1 mps 742 mmHg 77%
    08:00 +7°C° 0 mm 1 mps 742 mmHg 75%
    09:00 +7°C° 0 mm 1 mps 742 mmHg 74%
    10:00 +7°C° 0 mm 2 mps 742 mmHg 73%
    11:00 +7°C° 0 mm 2 mps 741 mmHg 71%
    12:00 +8°C° 0 mm 2 mps 741 mmHg 70%
    13:00 +8°C° 0 mm 2 mps 741 mmHg 71%
    14:00 +7°C° 0 mm 2 mps 741 mmHg 73%
    15:00 +7°C° 0 mm 2 mps 740 mmHg 74%
    16:00 +7°C° 0 mm 2 mps 741 mmHg 77%
    17:00 +7°C° 0 mm 1 mps 741 mmHg 80%
    18:00 +6°C° 0 mm 1 mps 741 mmHg 84%
    19:00 +6°C° 0 mm 1 mps 741 mmHg 84%
    20:00 +6°C° 0 mm 1 mps 741 mmHg 84%
    21:00 +6°C° 0 mm 1 mps 741 mmHg 84%
    22:00 +6°C° 0.1 mm 1 mps 741 mmHg 83%
    23:00 +6°C° 0.1 mm 1 mps 740 mmHg 83%

    Day after tomorrow, 18 December, Tuesday

    Time Temperature Precipitation Wind Pressure Humidity
    00:00 +6°C° 0.1 mm 1 mps 740 mmHg 82%
    01:00 +6°C° 0.3 mm 1 mps 740 mmHg 82%
    02:00 +6°C° 0.3 mm 1 mps 740 mmHg 82%
    03:00 +5°C° 0.3 mm 0 mps 740 mmHg 82%
    04:00 +5°C° 0.4 mm 0 mps 740 mmHg 83%
    05:00 +5°C° 0.4 mm 0 mps 740 mmHg 83%
    06:00 +5°C° 0.4 mm 0 mps 739 mmHg 84%
    07:00 +5°C° 0.3 mm 0 mps 740 mmHg 84%
    08:00 +5°C° 0.3 mm 0 mps 740 mmHg 83%
    09:00 +6°C° 0.3 mm 0 mps 741 mmHg 82%
    10:00 +7°C° 0.3 mm 1 mps 740 mmHg 81%
    11:00 +7°C° 0.3 mm 1 mps 740 mmHg 80%
    12:00 +7°C° 0.3 mm 1 mps 740 mmHg 78%
    13:00 +8°C° 0.1 mm 1 mps 740 mmHg 79%
    14:00 +8°C° 0.1 mm 1 mps 740 mmHg 79%
    15:00 +8°C° 0.1 mm 1 mps 740 mmHg 79%
    16:00 +7°C° 0 mm 1 mps 741 mmHg 82%
    17:00 +7°C° 0 mm 1 mps 741 mmHg 86%
    18:00 +6°C° 0 mm 1 mps 741 mmHg 89%
    19:00 +6°C° 0 mm 1 mps 741 mmHg 89%
    20:00 +6°C° 0 mm 1 mps 742 mmHg 89%
    21:00 +6°C° 0 mm 1 mps 742 mmHg 89%
    22:00 +5°C° 0 mm 1 mps 742 mmHg 89%
    23:00 +5°C° 0 mm 1 mps 742 mmHg 89%

    19 December, Wednesday

    Time Temperature Precipitation Wind Pressure Humidity
    00:00 +5°C° 0 mm 1 mps 742 mmHg 89%
    01:00 +5°C° 0 mm 1 mps 742 mmHg 89%
    02:00 +5°C° 0 mm 1 mps 742 mmHg 88%
    03:00 +4°C° 0 mm 0 mps 742 mmHg 88%
    04:00 +5°C° 0 mm 1 mps 742 mmHg 86%
    05:00 +5°C° 0 mm 1 mps 742 mmHg 85%
    06:00 +4°C° 0 mm 1 mps 742 mmHg 84%
    07:00 +5°C° 0 mm 1 mps 742 mmHg 81%
    08:00 +6°C° 0 mm 1 mps 742 mmHg 78%
    09:00 +6°C° 0 mm 1 mps 742 mmHg 76%
    10:00 +7°C° 0 mm 1 mps 742 mmHg 74%
    11:00 +8°C° 0 mm 1 mps 742 mmHg 72%
    12:00 +8°C° 0 mm 1 mps 741 mmHg 70%
    13:00 +9°C° 0 mm 1 mps 741 mmHg 70%
    14:00 +9°C° 0 mm 1 mps 741 mmHg 70%
    15:00 +9°C° 0 mm 1 mps 740 mmHg 69%
    16:00 +8°C° 0 mm 1 mps 740 mmHg 72%
    17:00 +7°C° 0 mm 1 mps 741 mmHg 75%
    18:00 +6°C° 0 mm 1 mps 741 mmHg 78%
    19:00 +6°C° 0 mm 1 mps 741 mmHg 78%
    20:00 +6°C° 0 mm 1 mps 741 mmHg 79%
    21:00 +4°C° 0 mm 2 mps 741 mmHg 79%
    22:00 +5°C° 0 mm 1 mps 740 mmHg 79%
    23:00 +5°C° 0 mm 1 mps 740 mmHg 78%

    20 December, Thursday

    Time Temperature Precipitation Wind Pressure Humidity
    00:00 +5°C° 0 mm 1 mps 740 mmHg 78%
    01:00 +5°C° 0 mm 1 mps 740 mmHg 78%
    02:00 +5°C° 0 mm 1 mps 739 mmHg 78%
    03:00 +6°C° 0 mm 1 mps 739 mmHg 77%
    04:00 +5°C° 0 mm 1 mps 739 mmHg 78%
    05:00 +5°C° 0 mm 1 mps 738 mmHg 79%
    06:00 +5°C° 0 mm 1 mps 738 mmHg 79%
    07:00 +6°C° 0 mm 1 mps 738 mmHg 77%
    08:00 +6°C° 0 mm 1 mps 738 mmHg 75%
    09:00 +7°C° 0 mm 1 mps 738 mmHg 73%
    10:00 +7°C° 0 mm 2 mps 737 mmHg 68%
    11:00 +8°C° 0 mm 2 mps 737 mmHg 63%
    12:00 +9°C° 0 mm 2 mps 736 mmHg 59%
    13:00 +9°C° 0 mm 2 mps 736 mmHg 58%
    14:00 +9°C° 0 mm 2 mps 736 mmHg 58%
    15:00 +10°C° 0 mm 1 mps 736 mmHg 58%
    16:00 +9°C° 0 mm 1 mps 736 mmHg 61%
    17:00 +9°C° 0 mm 1 mps 736 mmHg 64%
    18:00 +8°C° 0 mm 1 mps 736 mmHg 68%
    19:00 +7°C° 0 mm 1 mps 736 mmHg 68%
    20:00 +7°C° 0 mm 1 mps 737 mmHg 68%
    21:00 +7°C° 0 mm 1 mps 737 mmHg 69%
    22:00 +7°C° 0 mm 1 mps 737 mmHg 69%
    23:00 +7°C° 0 mm 1 mps 737 mmHg 70%

    21 December, Friday

    Time Temperature Precipitation Wind Pressure Humidity
    00:00 +7°C° 0 mm 1 mps 737 mmHg 71%
    01:00 +7°C° 0 mm 1 mps 738 mmHg 71%
    02:00 +7°C° 0 mm 1 mps 738 mmHg 71%
    03:00 +7°C° 0 mm 1 mps 738 mmHg 72%
    04:00 +7°C° 0 mm 1 mps 738 mmHg 72%
    05:00 +7°C° 0 mm 1 mps 738 mmHg 72%
    06:00 +6°C° 0 mm 1 mps 739 mmHg 73%
    07:00 +7°C° 0 mm 1 mps 739 mmHg 70%
    08:00 +8°C° 0 mm 1 mps 740 mmHg 68%
    09:00 +9°C° 0 mm 1 mps 740 mmHg 66%
    10:00 +9°C° 0 mm 1 mps 740 mmHg 64%
    11:00 +10°C° 0 mm 1 mps 740 mmHg 62%
    12:00 +10°C° 0 mm 2 mps 740 mmHg 59%
    13:00 +10°C° 0 mm 2 mps 740 mmHg 60%
    14:00 +11°C° 0 mm 1 mps 740 mmHg 61%
    15:00 +10°C° 0 mm 1 mps 740 mmHg 62%
    16:00 +10°C° 0 mm 1 mps 740 mmHg 66%
    17:00 +9°C° 0 mm 1 mps 740 mmHg 71%
    18:00 +8°C° 0 mm 1 mps 741 mmHg 75%
    19:00 +7°C° 0 mm 1 mps 741 mmHg 76%
    20:00 +7°C° 0 mm 1 mps 741 mmHg 76%
    21:00 +7°C° 0 mm 1 mps 741 mmHg 77%
    22:00 +7°C° 0 mm 1 mps 741 mmHg 78%
    23:00 +6°C° 0 mm 1 mps 741 mmHg 80%
    Show more